Temperature
18 18 18 17 17 17 17 17 16 16 16 16 16 15 15 15 15 14 14 14 14 14 13 13 13 13 13 13 13 13 12 12 12 12 12 12 12 12 12 12 12 11 11
18 18 18 17 17 17 17 17 16 16 16 16 16 15 15 15 15 14 14 14 14 14 13 13 13 13 13 13 12 12 12 12 12 12 12 12 12 11 11 11 11 11 11
18 18 18 17 17 17 17 17 16 16 16 16 16 15 15 15 14 14 14 14 14 13 13 13 13 13 13 12 12 12 12 12 12 11 11 11 11 11 11 11 11 11 11
18 18 18 17 17 17 17 16 16 16 16 16 15 15 15 15 14 14 14 14 13 13 13 13 13 13 12 12 12 12 12 12 12 11 11 11 11 11 11 11 11 11 11
18 18 18 17 17 17 16 16 16 16 16 15 15 15 15 14 14 14 14 14 13 13 13 13 13 12 12 12 12 12 12 11 11 11 11 11 11 11 11 11 11 11 11
18 18 18 17 17 17 16 16 16 16 15 15 15 15 15 15 14 14 14 13 13 13 13 13 13 12 12 12 12 12 11 11 11 11 11 11 11 10 10 10 10 10 10
18 18 18 17 17 17 16 16 16 15 15 15 15 15 15 14 14 14 13 13 13 13 13 12 12 12 12 12 12 11 11 11 11 11 11 10 10 10 10 10 10 10 9
18 18 17 17 17 16 16 16 16 15 15 15 15 14 14 14 14 13 13 13 13 13 12 12 12 12 12 11 11 11 11 11 11 10 10 10 10 10 9 9 9 9 9
18 17 17 17 16 16 16 16 15 15 15 14 14 14 14 14 13 13 13 13 12 12 12 12 11 11 11 11 11 11 11 11 10 10 10 10 9 9 9 9 9 8 8
17 17 17 16 16 16 16 15 15 15 14 14 14 14 13 13 13 13 12 12 12 12 12 11 11 11 11 10 10 10 10 10 10 9 9 9 9 9 9 8 8 8 8
17 17 17 16 16 16 15 15 15 14 14 14 13 13 13 13 13 12 12 12 12 11 11 11 11 10 10 10 10 10 10 9 9 9 9 9 9 8 8 8 8 7 7
17 17 16 16 16 15 15 15 14 14 13 13 13 13 13 13 12 12 12 11 11 11 11 11 10 10 10 10 9 9 9 9 9 9 9 8 8 8 8 7 7 7 7
16 16 16 15 15 15 15 14 14 13 13 13 13 12 12 12 12 12 11 11 11 10 10 10 10 10 9 9 9 9 9 8 8 8 8 8 8 7 7 7 6 6 6
16 16 15 15 15 14 14 14 13 13 13 12 12 12 12 12 11 11 11 11 10 10 10 10 9 9 9 9 9 8 8 8 7 7 7 7 7 6 6 6 6 6 5
15 15 15 14 14 14 13 13 13 12 12 12 11 11 11 11 11 11 10 10 10 10 9 9 9 9 9 8 8 8 7 7 7 7 6 6 6 6 6 5 5 5 4
15 14 14 14 13 13 13 12 12 12 11 11 11 11 10 10 10 10 10 9 9 9 9 9 8 8 8 8 7 7 7 6 6 6 6 5 5 5 5 5 4 4 4
14 14 14 13 13 12 12 12 12 11 11 11 10 10 10 10 9 9 9 9 9 8 8 8 8 7 7 7 6 6 6 5 5 5 5 5 4 4 4 4 3 3 3
13 13 13 12 12 12 11 11 11 11 11 10 10 10 9 9 9 9 8 8 8 8 7 7 7 6 6 6 6 5 5 5 5 4 4 4 4 3 3 3 3 2 2
13 12 12 12 11 11 11 11 10 10 10 10 10 9 9 9 8 8 8 7 7 7 7 6 6 6 5 5 5 5 4 4 4 4 3 3 3 3 2 2 2 2 1
12 12 11 11 11 10 10 10 10 10 9 9 9 9 8 8 8 8 7 7 7 6 6 6 5 5 5 5 4 4 4 3 3 3 3 2 2 2 2 2 2 1 1
11 11 11 10 10 10 10 9 9 9 9 8 8 8 8 7 7 7 7 6 6 6 5 5 5 5 4 4 4 3 3 3 2 2 2 2 2 2 2 1 1 1 1
11 10 10 10 9 9 9 9 9 8 8 8 8 7 7 7 7 6 6 6 6 5 5 5 4 4 4 3 3 3 3 2 2 2 2 1 1 1 1 1 1 1 0
10 10 10 9 9 9 8 8 8 8 8 7 7 7 7 6 6 6 5 5 5 5 5 4 4 4 3 3 3 2 2 2 2 1 1 1 1 1 1 0 0 0 -0
10 9 9 9 8 8 8 8 8 7 7 7 7 6 6 6 6 5 5 5 5 4 4 4 3 3 3 3 2 2 2 1 1 1 1 1 0 0 0 0 -0 -1 -1
9 9 9 8 8 8 8 7 7 7 7 6 6 6 6 5 5 5 5 4 4 4 3 3 3 3 2 2 2 1 1 1 1 1 0 0 0 -0 -0 -1 -1 -1 -1
8 8 8 8 7 7 7 7 7 6 6 6 6 5 5 5 5 4 4 4 3 3 3 3 2 2 2 2 1 1 1 1 0 0 0 -0 -0 -1 -1 -1 -1 -2 -2
Wind_Speed
6 5 5 4 4 4 4 4 4 4 4 4 4 3 3 2 3 3 2 2 2 1 1 2 1 1 1 1 1 1 1 2 2 2 2 3 3 4 7 8 8 8 8
6 6 5 4 4 4 4 4 4 4 4 4 4 4 3 3 3 3 3 3 3 2 1 1 0 1 1 1 1 1 1 2 2 2 2 3 3 4 4 5 7 7 7
6 6 5 5 5 5 4 4 4 4 3 3 3 4 3 3 3 3 3 3 3 2 2 2 1 1 0 0 1 0 0 1 1 1 2 2 2 3 3 4 4 5 6
6 6 6 6 6 5 4 4 4 4 4 3 3 3 3 3 3 3 3 3 2 1 1 1 1 2 2 2 1 1 1 1 1 0 1 2 3 3 2 3 4 3 4
6 6 6 5 4 4 4 4 4 4 4 3 3 2 2 3 3 4 4 4 3 2 1 1 1 2 2 2 1 2 2 1 0 0 1 2 3 2 3 2 3 4 4
7 6 5 5 5 4 4 4 4 3 3 3 3 3 3 2 4 6 5 4 3 3 2 1 1 1 2 2 2 2 2 2 2 1 1 2 4 3 2 2 2 3 4
6 6 5 6 5 5 5 5 5 4 4 3 3 3 3 3 4 6 6 4 4 3 3 1 1 1 1 1 1 1 1 2 3 3 3 4 4 4 2 2 2 2 4
5 5 5 6 5 5 5 5 4 4 4 4 3 3 3 3 5 5 6 4 3 2 2 2 2 2 1 1 1 1 1 2 2 2 3 4 4 3 3 3 3 3 4
5 5 5 6 6 5 5 5 4 4 4 3 3 3 3 3 4 5 6 3 2 2 2 2 2 2 3 1 2 1 2 3 3 2 3 4 5 5 2 1 1 1 3
6 6 6 6 7 6 6 5 3 4 4 3 3 2 3 3 3 5 6 4 3 2 1 2 3 3 3 2 2 2 2 4 2 2 3 4 4 4 3 1 2 1 2
5 5 5 6 6 6 5 4 4 4 3 3 2 1 2 3 3 4 6 4 4 3 2 2 2 3 3 2 2 3 5 3 1 1 2 3 3 3 3 2 2 2 3
5 5 5 4 5 5 5 4 4 4 4 2 2 0 1 2 2 3 5 5 4 3 3 2 2 2 2 2 2 3 4 2 0 0 1 2 3 3 3 3 3 3 4
5 5 4 4 3 4 5 5 3 3 3 2 2 1 1 1 1 2 3 4 4 3 3 3 2 1 1 1 2 2 1 0 0 1 2 3 3 3 3 3 4 4 4
5 4 4 4 3 3 3 4 4 4 3 3 2 2 1 1 1 1 1 2 2 2 1 1 0 1 0 1 2 2 0 1 1 2 2 3 2 2 2 2 3 3 3
4 4 4 4 4 3 3 2 3 3 4 4 4 3 3 2 3 3 3 2 2 2 2 1 1 1 1 1 1 1 1 1 1 1 2 2 2 3 3 2 2 2 3
4 4 3 3 3 3 3 2 2 1 2 3 3 3 2 2 2 3 3 2 3 3 2 1 1 1 1 1 1 2 1 1 2 2 2 2 2 3 3 3 2 3 4
5 4 3 3 4 3 3 3 2 2 3 1 1 2 2 2 2 3 3 2 2 3 2 1 1 2 2 2 2 2 2 2 2 1 2 2 2 3 3 3 3 3 4
4 5 4 3 4 3 3 3 3 3 1 1 2 0 1 1 2 2 3 3 2 1 1 1 2 2 2 2 2 2 2 2 2 2 2 2 3 3 3 4 4 4 5
4 3 3 3 3 3 3 3 2 2 2 0 1 1 1 1 1 1 2 2 2 1 2 2 2 2 2 2 2 2 2 2 2 2 3 3 3 3 4 4 5 7 6
3 5 4 3 3 3 2 3 2 2 2 1 1 1 0 1 1 0 0 1 2 2 2 2 2 2 2 3 2 2 2 2 2 3 3 3 3 3 4 5 5 6 6
3 4 5 4 3 3 3 3 3 2 2 2 2 2 2 1 2 2 2 2 2 3 3 2 2 2 3 3 3 3 3 3 3 3 3 4 4 4 4 5 6 6 6
4 3 3 3 3 2 2 2 2 2 3 2 1 1 1 1 1 2 2 2 2 3 3 2 3 3 3 3 3 3 3 4 4 3 4 4 4 5 5 5 6 6 6
4 4 3 2 2 3 2 2 2 2 2 2 2 1 1 2 2 2 2 2 2 2 2 2 2 3 3 3 3 4 4 5 4 4 4 5 5 5 5 6 7 7 7
4 4 3 3 2 2 2 2 2 2 2 2 2 2 2 2 2 2 2 2 2 2 2 2 3 4 4 3 4 4 5 6 6 5 6 5 6 5 5 6 7 8 8
4 4 3 3 3 2 2 2 2 2 2 2 2 2 2 2 2 2 2 2 2 3 3 3 3 3 5 5 6 6 7 8 8 7 6 5 6 6 6 7 7 8 8
4 4 3 3 2 2 2 2 2 2 2 2 2 2 2 2 2 2 2 2 2 3 3 4 4 5 6 6 8 8 9 9 9 9 7 5 5 6 6 6 8 8 9
Wind_Direction
177 175 171 177 173 164 173 185 182 174 165 168 163 157 159 149 140 136 136 127 117 89 70 95 68 80 90 82 108 118 131 145 189 284 291 309 331 339 343 352 353 352 354
174 166 170 166 159 165 183 185 172 169 167 168 159 161 169 164 154 158 162 151 149 143 139 108 49 90 76 76 107 130 158 171 175 255 307 322 320 324 330 338 343 345 346
164 162 164 166 169 179 186 178 170 166 161 156 158 170 174 169 168 172 167 165 169 172 177 174 205 146 191 219 148 145 178 127 154 192 291 310 312 327 339 339 342 341 341
164 165 175 183 184 185 179 170 169 164 156 164 174 178 178 173 171 172 163 159 163 164 182 197 208 201 214 212 194 198 153 103 94 153 293 309 308 313 339 334 334 338 334
167 177 192 188 175 169 168 168 163 160 167 169 162 170 174 168 177 167 166 167 165 164 202 238 224 222 230 213 205 195 163 151 136 282 299 318 315 322 315 309 315 319 319
177 192 187 168 166 173 173 164 157 162 162 154 163 169 170 189 183 174 168 168 169 171 196 249 267 272 273 261 241 204 178 180 198 207 252 267 282 276 284 299 305 334 320
182 185 176 171 174 180 171 160 168 174 166 165 178 174 184 205 187 178 175 165 169 182 196 214 266 298 285 265 309 307 279 265 222 195 214 245 259 256 259 289 276 263 273
179 180 176 171 172 166 160 169 179 170 170 176 183 190 195 216 198 182 171 156 157 181 195 199 212 263 255 204 160 12 311 302 271 229 220 246 255 251 230 241 250 273 284
180 183 178 170 165 163 170 181 177 166 174 180 183 186 197 229 201 183 162 153 163 203 215 207 203 231 255 218 147 214 301 310 311 282 276 295 311 311 296 44 334 317 303
195 187 174 167 167 175 182 177 164 165 180 172 172 187 199 219 203 187 170 161 176 213 237 247 238 235 255 233 183 192 255 281 297 322 330 332 333 328 316 233 216 253 281
186 163 160 165 170 172 164 157 150 155 150 152 165 195 215 225 216 195 180 177 190 199 215 243 248 240 246 244 214 206 239 256 261 271 315 325 334 335 328 305 253 225 240
151 147 153 159 162 155 146 143 140 148 148 152 152 190 266 254 222 207 199 196 186 183 213 231 238 235 251 268 249 236 253 274 125 17 323 312 311 308 309 316 303 278 258
136 142 145 141 144 144 144 145 138 145 151 164 169 205 263 275 258 228 212 207 198 196 214 216 221 241 272 297 290 276 287 196 149 272 279 283 281 289 315 321 325 319 310
135 136 133 134 133 131 134 143 148 159 168 175 187 212 240 269 258 229 206 195 197 211 226 209 65 5 28 334 341 339 340 197 208 239 271 287 306 316 314 307 308 315 313
129 128 126 130 134 127 125 141 163 184 184 184 199 196 192 226 238 203 175 185 189 189 151 94 64 35 19 351 341 331 331 338 293 272 275 297 309 311 310 311 302 309 302
127 128 133 134 133 135 129 90 62 121 145 163 162 161 213 219 179 163 169 169 168 155 123 134 208 232 243 259 278 304 311 291 272 261 272 281 292 299 307 314 311 301 298
143 146 142 142 142 144 146 146 127 36 51 74 152 165 162 147 141 142 144 137 132 132 128 172 216 236 250 258 262 264 276 279 270 261 268 280 289 295 301 305 307 305 300
137 144 147 154 154 156 160 163 161 155 116 354 352 50 152 144 138 132 124 99 71 83 167 209 233 241 248 251 253 257 260 275 280 274 270 276 280 285 289 293 293 293 294
140 146 147 146 147 151 153 152 152 153 156 167 20 15 52 81 76 80 107 132 178 211 226 242 245 244 246 246 245 246 249 259 270 277 278 279 280 281 284 286 287 291 292
149 149 142 140 139 141 148 153 160 164 170 182 206 234 102 74 59 342 229 201 208 229 235 243 249 244 244 245 243 243 251 264 275 275 279 282 279 275 279 285 288 290 288
150 155 146 139 151 160 164 174 178 178 190 211 241 238 203 186 207 221 227 227 230 236 240 243 247 248 247 247 243 243 247 257 262 267 272 276 281 281 280 280 282 284 287
153 155 160 163 165 169 176 183 181 185 197 211 256 260 211 194 215 232 243 250 247 241 235 231 246 251 248 248 246 245 251 258 263 269 278 282 285 286 287 284 285 287 289
150 150 153 161 166 168 165 169 177 190 209 223 228 237 237 235 243 246 255 261 257 253 243 228 239 260 272 270 257 243 246 249 252 255 266 279 284 284 285 287 288 289 289
152 155 158 162 165 169 178 188 197 205 212 222 232 239 241 244 253 258 261 263 261 263 253 238 237 244 254 269 274 267 262 261 262 261 259 265 273 279 282 285 288 288 287
156 158 162 170 175 182 185 193 204 213 222 228 233 243 252 254 261 265 265 269 269 267 262 255 248 250 257 266 272 273 270 269 272 274 272 263 266 272 276 279 283 289 287
161 162 170 174 178 187 192 199 211 217 224 235 237 238 242 247 256 265 268 273 284 281 274 268 258 258 265 270 271 270 271 276 279 280 279 270 266 273 279 281 285 286 287
Height
1552 1554 1556 1557 1559 1560 1561 1561 1562 1563 1563 1564 1564 1564 1565 1565 1565 1565 1565 1565 1565 1564 1564 1564 1563 1563 1563 1562 1562 1561 1560 1560 1558 1557 1556 1555 1553 1551 1549 1548 1546 1544 1542
1550 1552 1554 1555 1557 1558 1559 1560 1561 1561 1562 1562 1562 1563 1563 1564 1564 1564 1564 1564 1564 1563 1563 1563 1562 1562 1562 1561 1561 1560 1559 1558 1558 1556 1555 1554 1552 1550 1549 1547 1545 1543 1541
1548 1550 1552 1553 1554 1556 1557 1558 1559 1560 1560 1561 1561 1561 1562 1562 1562 1563 1563 1563 1563 1562 1562 1562 1561 1561 1560 1560 1559 1559 1558 1557 1556 1555 1553 1552 1551 1549 1547 1545 1544 1542 1540
1546 1548 1549 1551 1552 1554 1555 1556 1557 1558 1558 1559 1559 1560 1560 1560 1561 1561 1561 1561 1561 1561 1561 1560 1560 1560 1559 1559 1558 1557 1556 1556 1555 1553 1552 1551 1549 1547 1546 1544 1542 1540 1539
1544 1546 1547 1549 1550 1552 1553 1554 1555 1555 1556 1557 1557 1557 1558 1558 1559 1559 1559 1559 1559 1559 1559 1559 1558 1558 1557 1557 1556 1555 1555 1554 1553 1551 1550 1549 1547 1546 1544 1542 1540 1538 1536
1541 1543 1545 1546 1548 1549 1550 1551 1552 1553 1554 1554 1555 1555 1556 1556 1556 1557 1557 1557 1557 1557 1557 1556 1556 1556 1555 1555 1554 1553 1553 1552 1550 1549 1548 1547 1545 1544 1542 1540 1538 1536 1534
1539 1540 1542 1543 1545 1546 1547 1548 1549 1550 1551 1551 1552 1552 1553 1553 1554 1554 1554 1555 1555 1554 1554 1554 1554 1553 1553 1552 1552 1551 1550 1550 1549 1548 1546 1545 1543 1542 1540 1538 1536 1534 1532
1536 1537 1539 1540 1542 1543 1544 1545 1546 1547 1548 1548 1549 1550 1550 1551 1551 1551 1552 1552 1552 1552 1552 1551 1551 1551 1550 1550 1549 1548 1548 1547 1546 1545 1544 1542 1541 1539 1538 1536 1534 1531 1529
1533 1534 1536 1537 1539 1540 1541 1542 1543 1544 1545 1545 1546 1547 1547 1548 1548 1549 1549 1549 1549 1549 1549 1549 1548 1548 1548 1547 1546 1545 1544 1544 1543 1542 1541 1539 1538 1536 1535 1533 1530 1528 1525
1530 1531 1533 1535 1536 1537 1538 1539 1540 1541 1542 1542 1543 1543 1544 1545 1545 1545 1546 1546 1546 1546 1546 1546 1545 1545 1544 1544 1543 1542 1541 1540 1539 1538 1537 1536 1534 1533 1531 1529 1527 1525 1522
1528 1529 1530 1532 1533 1534 1535 1536 1537 1538 1539 1539 1540 1540 1541 1541 1542 1542 1542 1542 1542 1542 1542 1542 1542 1542 1541 1540 1540 1539 1538 1537 1535 1534 1533 1531 1530 1529 1527 1525 1523 1521 1518
1525 1526 1527 1529 1530 1531 1532 1533 1534 1535 1535 1536 1536 1537 1537 1538 1538 1539 1539 1539 1539 1539 1538 1539 1538 1538 1538 1537 1536 1535 1534 1533 1532 1530 1529 1527 1526 1524 1523 1521 1519 1517 1515
1522 1524 1525 1526 1527 1528 1529 1530 1531 1531 1532 1532 1533 1533 1534 1535 1535 1535 1536 1536 1536 1535 1535 1535 1535 1535 1534 1533 1533 1532 1530 1529 1527 1526 1524 1523 1522 1520 1518 1517 1515 1513 1510
1520 1521 1522 1523 1524 1525 1526 1527 1527 1528 1529 1529 1530 1530 1531 1531 1531 1532 1532 1532 1532 1532 1532 1531 1531 1531 1530 1529 1528 1527 1526 1525 1523 1522 1520 1519 1518 1516 1514 1512 1510 1507 1505
1518 1519 1520 1521 1522 1522 1523 1524 1525 1526 1526 1527 1527 1528 1528 1527 1528 1529 1528 1528 1528 1528 1527 1527 1527 1526 1526 1525 1524 1523 1522 1521 1519 1518 1516 1515 1513 1511 1509 1507 1505 1502 1500
1516 1517 1518 1519 1520 1520 1521 1522 1523 1524 1524 1525 1525 1525 1525 1525 1525 1525 1525 1525 1525 1524 1524 1523 1522 1522 1521 1520 1519 1518 1517 1516 1515 1513 1512 1510 1508 1507 1505 1503 1500 1498 1495
1515 1516 1516 1517 1517 1518 1519 1519 1520 1521 1522 1522 1522 1522 1522 1522 1522 1522 1522 1522 1521 1521 1520 1519 1518 1518 1517 1516 1515 1514 1513 1512 1511 1509 1507 1506 1504 1502 1500 1498 1496 1493 1490
1514 1514 1514 1515 1515 1516 1517 1517 1517 1518 1518 1518 1519 1519 1519 1519 1519 1519 1519 1518 1517 1517 1516 1515 1515 1514 1513 1512 1511 1510 1509 1508 1506 1505 1503 1501 1499 1498 1495 1493 1491 1488 1486
1512 1512 1513 1513 1514 1514 1515 1515 1515 1516 1516 1516 1516 1516 1516 1516 1516 1516 1515 1514 1514 1513 1513 1512 1511 1510 1509 1508 1507 1506 1505 1503 1501 1500 1498 1496 1495 1493 1491 1489 1486 1484 1481
1509 1510 1511 1511 1512 1512 1513 1513 1513 1513 1513 1513 1513 1513 1513 1513 1512 1512 1512 1511 1510 1510 1509 1508 1507 1506 1505 1504 1502 1501 1500 1498 1496 1495 1493 1492 1490 1488 1486 1484 1481 1479 1476
1507 1507 1508 1509 1509 1510 1510 1510 1510 1510 1510 1510 1510 1510 1510 1510 1509 1509 1508 1507 1506 1505 1505 1504 1503 1502 1501 1499 1498 1496 1495 1493 1492 1490 1488 1486 1484 1482 1480 1478 1476 1473 1471
1504 1505 1505 1506 1506 1507 1507 1508 1508 1508 1507 1507 1507 1507 1507 1506 1505 1505 1504 1503 1502 1501 1500 1499 1498 1497 1496 1495 1493 1491 1490 1488 1487 1485 1483 1481 1479 1477 1475 1473 1470 1468 1465
1501 1502 1502 1503 1503 1504 1504 1504 1504 1504 1504 1504 1504 1503 1503 1502 1501 1500 1500 1499 1498 1497 1495 1494 1493 1492 1491 1489 1488 1486 1484 1483 1481 1480 1478 1476 1474 1472 1470 1467 1465 1463 1460
1498 1498 1499 1499 1500 1500 1501 1501 1501 1501 1501 1501 1500 1500 1499 1498 1497 1496 1495 1494 1493 1492 1490 1489 1488 1486 1485 1484 1482 1481 1479 1478 1476 1474 1472 1471 1469 1466 1464 1462 1460 1457 1455
1495 1495 1496 1496 1497 1497 1497 1497 1498 1498 1497 1497 1496 1496 1495 1494 1493 1492 1491 1489 1488 1486 1485 1484 1483 1481 1480 1478 1477 1475 1474 1472 1471 1469 1467 1465 1463 1461 1459 1456 1454 1452 1450
1492 1492 1492 1493 1493 1493 1493 1493 1494 1493 1493 1493 1492 1492 1491 1490 1488 1487 1486 1484 1483 1481 1480 1478 1477 1475 1474 1472 1471 1469 1468 1466 1465 1463 1461 1459 1457 1455 1453 1451 1448 1446 1444